Document Center

Browse Documents
Browse All |  Home
Documents 1-50 of 93
Date Type Title Views Size Info
10/10/2017 docx Purdue vs. Minnesota Weekend 18 12 KB Details icon
10/04/2017 pdf 2017 September Crash Comparison 13 393 KB Details icon
10/02/2017 pdf 2017 September Monthly Report-Chief 36 643 KB Details icon
10/02/2017 pdf 2017 September Calls for Service 15 3,485 KB Details icon
09/25/2017 pdf Purdue vs. Michigan Weekend 36 1,588 KB Details icon
09/11/2017 pdf Purdue vs. Ohio Weekend 47 482 KB Details icon
09/07/2017 pdf 2017 August Crash Comparison 16 375 KB Details icon
09/06/2017 pdf 2017 August Monthly Report-Chief 47 644 KB Details icon
09/06/2017 pdf 2017 August Calls for Service 26 3,336 KB Details icon
08/16/2017 pdf Suspect arrested in stabbing 62 518 KB Details icon
08/07/2017 pdf 2017 July Monthly Report-Chief 49 659 KB Details icon
08/01/2017 pdf 2017 July Calls for Service 41 3,124 KB Details icon
07/11/2017 pdf 2017 June Calls for Service 55 3,185 KB Details icon
06/06/2017 pdf 2017 May Crash Comparison 67 382 KB Details icon
06/06/2017 pdf 2017 May Monthly Report-Chief 112 707 KB Details icon
06/01/2017 pdf 2017 May Calls for Service 96 3,318 KB Details icon
05/22/2017 pdf Press Release-Attempted Robbery 154 582 KB Details icon
05/17/2017 pdf 2017 April Monthly Report-Chief 183 581 KB Details icon
05/17/2017 pdf 2017 April Crash Comparison 130 389 KB Details icon
05/17/2017 pdf 2017 March Crash Comparison 91 392 KB Details icon
05/01/2017 pdf 2017 April Calls for Service 124 3,015 KB Details icon
04/24/2017 pdf 2017 Grand Prix Weekend 165 1,456 KB Details icon
04/03/2017 pdf 2017 March Calls for Service 132 2,980 KB Details icon
03/06/2017 pdf 2017 February Monthly Report-Chief 159 738 KB Details icon
03/06/2017 pdf 2017 February Crash Comparison 134 382 KB Details icon
03/01/2017 pdf 2017 February Calls for Service 119 3,466 KB Details icon
02/06/2017 pdf 2017 January Crash Comparison 133 371 KB Details icon
02/01/2017 pdf 2017 January Calls for Service 150 2,963 KB Details icon
01/26/2017 pdf 2016 Annual Report 254 6,679 KB Details icon
01/19/2017 pdf 2016 December Crash Comparison 121 381 KB Details icon
01/03/2017 pdf 2016 December Monthly Report-Chief 209 657 KB Details icon
01/03/2017 pdf 2016 December Calls for Service 133 2,867 KB Details icon
12/08/2016 pdf 2016 November Crash Comparison 129 369 KB Details icon
12/05/2016 pdf 2016 November Monthly Report-Chief 168 607 KB Details icon
12/01/2016 pdf 2016 November Calls for Service 121 2,686 KB Details icon
11/15/2016 pdf 2016 October Crash Comparison 154 371 KB Details icon
11/14/2016 pdf Purdue vs. Northwestern Football Weekend 139 1,433 KB Details icon
11/07/2016 pdf 2016 October Monthly Report-Chief 186 758 KB Details icon
11/01/2016 pdf 2016 October Calls for Service 172 2,963 KB Details icon
10/31/2016 pdf Purdue vs. Penn State Football Weekend 148 1,429 KB Details icon
10/17/2016 pdf Purdue vs. Iowa Football Weekend 157 1,631 KB Details icon
10/07/2016 pdf 2016 September Crash Comparison 140 415 KB Details icon
10/04/2016 pdf Press Release-Strong Arm Robbery 289 649 KB Details icon
10/03/2016 pdf 2016 September Monthly Report-Chief 138 594 KB Details icon
10/03/2016 pdf 2016 September Calls for Service 125 3,101 KB Details icon
09/26/2016 pdf Purdue vs. Nevada Football Weekend 132 1,731 KB Details icon
09/15/2016 pdf Purdue vs. Eastern Kentucky Football Weekend 118 1,500 KB Details icon
09/15/2016 pdf Purdue vs. Cincinnati Football Weekend 121 1,532 KB Details icon
09/12/2016 pdf 2016 August Calls for Service 144 3,222 KB Details icon
09/12/2016 pdf 2016 August Crash Comparison 153 376 KB Details icon
Documents 1-50 of 93